Regional Weather Roundup
Issued by NWS

Home | Current Version | Previous Version | Text Only | Print | Product List | Glossary Off
Versions: 1 2 3 4 5 6 7 8 9 10 11 12 13 14 15 16 17 18 19 20 21 22 23 24 25 26 27 28 29 30 31 32 33 34 35 36 37 38 39 40 41 42 43 44 45 46 47 48 49 50

900
ASUS43 KMKX 251820
RWRWI

WISCONSIN REGIONAL WEATHER ROUNDUP
NATIONAL WEATHER SERVICE MILWAUKEE/SULLIVAN WI
1200 PM CST SUN FEB 25 2018

NOTE: "FAIR" INDICATES FEW OR NO CLOUDS BELOW 12,000 FEET WITH NO
SIGNIFICANT WEATHER AND/OR OBSTRUCTIONS TO VISIBILITY.

WIZ001-002-006>008-014>016-023>028-251900-
NORTHWEST WISCONSIN

CITY           SKY/WX    TMP DP  RH WIND       PRES   REMARKS
SUPERIOR ARPT  CLOUDY    27  19  69 W14G26    29.56R WCI  16
6HR MIN TEMP:  24; 6HR MAX TEMP:  28;

ASHLAND        CLOUDY    26  19  74 SW21G30   29.54R WCI  12
6HR MIN TEMP:  24; 6HR MAX TEMP:  26;

HAYWARD        LGT SNOW  23  17  78 SW16G24   29.59R WCI  10
6HR MIN TEMP:  22; 6HR MAX TEMP:  25; 6HR PCP: TRACE;

SIREN          CLOUDY    23  16  74 W15G23    29.65R WCI  10
6HR MIN TEMP:  21; 6HR MAX TEMP:  23;

CUMBERLAND     CLOUDY    23  14  68 W13       29.65R WCI  11
RICE LAKE      CLOUDY    23  16  74 SW12      29.69R WCI  12
6HR MIN TEMP:  19; 6HR MAX TEMP:  23;

CHETEK         CLOUDY    24  15  69 SW12      29.68R WCI  13
6HR MIN TEMP:  18; 6HR MAX TEMP:  24;

LADYSMITH      CLOUDY    25  19  77 SW20G26   29.65R WCI  10
6HR MIN TEMP:  20; 6HR MAX TEMP:  25;

EAU CLAIRE     FAIR      24  15  68 SW18G28   29.71R WCI  10
6HR MIN TEMP:  18; 6HR MAX TEMP:  24;

MENOMONIE      FAIR      26  15  62 SW20      29.73R WCI  12
6HR MIN TEMP:  19; 6HR MAX TEMP:  25;

NEW RICHMOND   FAIR      24  14  65 SW17      29.71R WCI  10
6HR MIN TEMP:  17; 6HR MAX TEMP:  24;

OSCEOLA        FAIR      26  15  63 SW22      29.75R WCI  11
6HR MIN TEMP:  19; 6HR MAX TEMP:  26;

$$

WIZ003>005-009-010-017-018-251900-
NORTH CENTRAL WISCONSIN

CITY           SKY/WX    TMP DP  RH WIND       PRES   REMARKS
MANITOWISH WTR CLOUDY    21  19  93 SW16G28   29.51R FOG     WCI   7
6HR MIN TEMP:  21; 6HR MAX TEMP:  26;

ARBOR VITAE    LGT SNOW  22  18  87 SW15G26   29.53S WCI   8
6HR MIN TEMP:  22; 6HR MAX TEMP:  27;

WOODRUFF       LGT SNOW  22  18  87 SW15G26   29.53S WCI   8
6HR MIN TEMP:  22; 6HR MAX TEMP:  27;

RHINELANDER    LGT SNOW  20  17  88 W23G32    29.55R FOG     WCI   3
6HR MIN TEMP:  19; 6HR MAX TEMP:  26; 6HR PCP: TRACE;

EAGLE RIVER    CLOUDY    20  16  82 W21G35    29.51R HAZE    WCI   4
6HR MIN TEMP:  20; 6HR MAX TEMP:  27;

LAND O LAKES   CLOUDY    22  18  84 SW13G25   29.51R FOG     WCI  10
6HR MIN TEMP:  22; 6HR MAX TEMP:  29;

PHILLIPS       CLOUDY    22  18  85 SW13      29.58R WCI  10
6HR MIN TEMP:  18; 6HR MAX TEMP:  24;

TOMAHAWK       CLOUDY    21  17  82 SW13      29.60R WCI   9
6HR MIN TEMP:  18; 6HR MAX TEMP:  24;

MEDFORD        CLOUDY    22  16  78 SW18G24   29.63R WCI   7
6HR MIN TEMP:  17; 6HR MAX TEMP:  22;

MERRILL        CLOUDY    26  19  73 W20G31    29.63R WCI  13
6HR MIN TEMP:  19; 6HR MAX TEMP:  24;

$$

WIZ029-030-035-036-043>047-251900-
CENTRAL WISCONSIN

CITY           SKY/WX    TMP DP  RH WIND       PRES   REMARKS
WAUSAU         CLOUDY    25  17  72 W23G32    29.64R WCI  10
6HR MIN TEMP:  20; 6HR MAX TEMP:  25; 6HR PCP: TRACE;

MOSINEE        PTSUNNY   25  21  86 SW17G26   29.67R WCI  11
MARSHFIELD     FAIR      25  18  74 W18G30    29.66R WCI  11
6HR MIN TEMP:  20; 6HR MAX TEMP:  25; 6HR PCP: TRACE;

STEVENS POINT  CLOUDY    25  20  83 SW9G16    29.69S WCI  15
6HR MIN TEMP:  20; 6HR MAX TEMP:  25;

WAUPACA        FAIR      32  22  67 SW20G30   29.71S WCI  20
6HR MIN TEMP:  26; 6HR MAX TEMP:  32;

WAUTOMA        FAIR      33  19  56 W18G29    29.72S WCI  22
6HR MIN TEMP:  24; 6HR MAX TEMP:  34;

WISC RAPIDS    FAIR      28  19  69 MISG      29.72R
6HR MIN TEMP:  21; 6HR MAX TEMP:  28;

CAMP DOUGLAS   MOSUNNY   30  23  74 W14       29.75R WCI  20
$$

WIZ011>013-019>022-031-037>040-048>050-251900-
NORTHEAST WISCONSIN

CITY           SKY/WX    TMP DP  RH WIND       PRES   REMARKS
ANTIGO         CLOUDY    23  19  83 W25       29.59R WCI   6
6HR MIN TEMP:  19; 6HR MAX TEMP:  23;

SHAWANO        CLOUDY    30  22  73 SW16G22   29.66S WCI  18
6HR MIN TEMP:  27; 6HR MAX TEMP:  29;

OCONTO         CLOUDY    27  20  75 W25G31    29.66R WCI  12
6HR MIN TEMP:  27; 6HR MAX TEMP:  30;

STURGEON BAY   CLOUDY    27  21  78 SW24G37   29.63R WCI  12
6HR MIN TEMP:  27; 6HR MAX TEMP:  30;

GREEN BAY      FAIR      31  20  63 SW26G33   29.69R WCI  17
6HR MIN TEMP:  27; 6HR MAX TEMP:  31;

MANITOWOC      FAIR      33  20  58 SW25G35   29.69F WCI  20
6HR MIN TEMP:  28; 6HR MAX TEMP:  33;

APPLETON       PTSUNNY   30  18  59 SW23G32   29.69R WCI  17
CLINTONVILLE   CLOUDY    29  20  69 W17G26    29.69S WCI  17
6HR MIN TEMP:  25; 6HR MAX TEMP:  28;

OSHKOSH        FAIR      32  20  61 SW15G25   29.72S WCI  22
6HR MIN TEMP:  26; 6HR MAX TEMP:  32;

$$

WIZ032>034-041-042-053>061-251900-
SOUTHWEST WISCONSIN

CITY           SKY/WX    TMP DP  RH WIND       PRES   REMARKS
LA CROSSE      FAIR      30  20  66 SW12G17   29.81R WCI  20
6HR MIN TEMP:  23; 6HR MAX TEMP:  30;

SPARTA         FAIR      30  20  66 SW13G18   29.78R WCI  20
6HR MIN TEMP:  22; 6HR MAX TEMP:  30;

VIROQUA        FAIR      29  22  74 W17G25    29.78R WCI  17
6HR MIN TEMP:  19; 6HR MAX TEMP:  29;

BOSCOBEL       FAIR      36  20  52 SW22G28   29.85R WCI  25
6HR MIN TEMP:  23; 6HR MAX TEMP:  36;

PRAIRIE DU CHI FAIR      34  19  54 W13G18    29.86R WCI  25
6HR MIN TEMP:  22; 6HR MAX TEMP:  34;

PLATTEVILLE    FAIR      33  24  68 W22       29.87R WCI  21
6HR MIN TEMP:  23; 6HR MAX TEMP:  34;

$$

WIZ056-057-062-063-064-067-068-251900-
SOUTH CENTRAL WISCONSIN

CITY           SKY/WX    TMP DP  RH WIND       PRES   REMARKS
REEDSBURG      FAIR      34  19  54 W21G29    29.78R WCI  23
6HR MIN TEMP:  22; 6HR MAX TEMP:  33;

BARABOO/DELLS  FAIR      33  21  62 SW14G23   29.76S WCI  23
6HR MIN TEMP:  23; 6HR MAX TEMP:  33;

LONE ROCK      FAIR      34  20  56 W13G25    29.83R WCI  25
6HR MIN TEMP:  23; 6HR MAX TEMP:  34;

MINERAL POINT  FAIR      34  27  75 SW13G23   29.82S WCI  25
MADISON        FAIR      33  20  58 SW21G26   29.82R WCI  21
6HR MIN TEMP:  26; 6HR MAX TEMP:  33;

MIDDLETON      FAIR      35  22  59 SW18G28   29.81R WCI  24
6HR MIN TEMP:  28; 6HR MAX TEMP:  35;

WATERTOWN      FAIR      33  22  62 SW20      29.80S WCI  22
6HR MIN TEMP:  28; 6HR MAX TEMP:  34;

MONROE         FAIR      34  21  60 SW20G31   29.84R WCI  22
JANESVILLE     SUNNY     37  25  60 SW17G23   29.85S WCI  28
$$

WIZ051-052-058>065-066-070>072-251900-
SOUTHEAST WISCONSIN

CITY           SKY/WX    TMP DP  RH WIND       PRES   REMARKS
MILWAUKEE      FAIR      39  19  44 W18G41    29.80S WCI  30
6HR MIN TEMP:  32; 6HR MAX TEMP:  39;

WAUKESHA       SUNNY     34  19  55 SW22G28   29.81S WCI  22
MILWAUKEE/TIMM SUNNY     36  18  48 W17G38    29.79R WCI  25
RACINE         FAIR      39  22  50 SW16G36   29.84R WCI  30
6HR MIN TEMP:  32; 6HR MAX TEMP:  39;

BURLINGTON     FAIR      36  24  61 W16G24    29.84F WCI  26
6HR MIN TEMP:  31; 6HR MAX TEMP:  36;

KENOSHA        FAIR      39  23  52 W24G36    29.84R WCI  28
6HR MIN TEMP:  32; 6HR MAX TEMP:  39;

FOND DU LAC    FAIR      33  19  56 SW17G29   29.74S WCI  22
6HR MIN TEMP:  28; 6HR MAX TEMP:  33;

SHEBOYGAN      FAIR      34  24  67 W30G38    29.73R WCI  20
6HR MIN TEMP:  29; 6HR MAX TEMP:  34;

WEST BEND      FAIR      34  21  60 W15G35    29.74F WCI  24
JUNEAU         FAIR      32  22  67 SW21      29.78F WCI  20
6HR MIN TEMP:  27; 6HR MAX TEMP:  32;

$$

LSZ147-162-251900-
LAKE SUPERIOR

STATION/POSITION TIME  TEMP    WIND        PRES    WAVE
                       AIR SEA DIR/SP/G            HT/PER
                 (UTC) (F)     (DEG/KT/KT) (MB)    (FT/S)
DEVILS ISLAND    1800   28     260/ 29/ 35  998.6R
SAXON HARBOR     1730   27     240/ 11/ 21  999.7R
$$

LMZ867-665-643>646-251900-
LAKE MICHIGAN

STATION/POSITION TIME  TEMP    WIND        PRES    WAVE
                       AIR SEA DIR/SP/G            HT/PER




USA.gov is the U.S. government's official web portal to all federal, state and local government web resources and services.